Regional Weather Roundup
Issued by NWS

Home | Current Version | Previous Version | Graphics & Text | Print | Product List | Glossary On
Versions: 1 2 3 4 5 6 7 8 9 10 11 12 13 14 15 16 17 18 19 20 21 22 23 24 25 26 27 28 29 30 31 32 33 34 35 36 37 38 39 40 41 42 43 44 45 46 47 48 49 50
000
ASUS45 KPSR 271900
RWRAZ

PRELIMINARY ARIZONA REGIONAL HOURLY WEATHER ROUNDUP
NATIONAL WEATHER SERVICE PHOENIX AZ
1200 PM MST SUN JUL 27 2014

NOTE: FAIR INDICATES FEW OR NO CLOUDS BELOW 12,000 FEET WITH NO
SIGNIFICANT WEATHER AND/OR OBSTRUCTIONS TO VISIBILITY.

AZZ001>003-036-272000-
NORTHWEST ARIZONA

CITY           SKY/WX    TMP DP  RH WIND       PRES   REMARKS
KINGMAN        MOSUNNY   90  56  31 SW16      30.16F
$$

AZZ004>008-015-016-018-272000-
NORTH CENTRAL ARIZONA

CITY           SKY/WX    TMP DP  RH WIND       PRES   REMARKS
GRAND CANYON   LGT RAIN  79  48  33 NW6       30.38S
WILLIAMS       MOSUNNY   77  54  44 SE13G22   30.44F
PRESCOTT       CLOUDY    81  56  42 CALM      30.25F
FLAGSTAFF      CLOUDY    70  54  56 S6        30.44F
PAYSON         PTSUNNY   84  54  34 VRB5      30.25F
PAGE           SUNNY     95  46  18 N6        30.16F
$$

AZZ009>014-017-272000-
NORTHEAST ARIZONA

CITY           SKY/WX    TMP DP  RH WIND       PRES   REMARKS
WINSLOW        NOT AVBL
SAINT JOHNS    MOSUNNY   80  55  42 NW3       30.29F
WINDOW ROCK    MOSUNNY   87  44  22 VRB6      30.38F
$$

AZZ023-272000-
GREATER PHOENIX AREA

CITY           SKY/WX    TMP DP  RH WIND       PRES   REMARKS
PHOENIX        PTSUNNY   95  59  30 VRB6      29.95F
BUCKEYE          N/A     91  63  38 N5        29.98S
GLENDALE       PTSUNNY   91  64  40 CALM      29.98F
LUKE AFB       NOT AVBL
DEER VALLEY    PTSUNNY   93  65  39 W9        29.97F
SCOTTSDALE     PTSUNNY   94  59  31 CALM      29.98F
MESA-GATEWAY   PTSUNNY   95  61  31 N8        29.99F
CHANDLER       PTSUNNY   95  59  30 W12       29.97F
$$

AZZ027-028-272000-
SOUTHWEST MARICOPA COUNTY AND PINAL COUNTY

CITY           SKY/WX    TMP DP  RH WIND       PRES   REMARKS
CASA GRANDE    MOSUNNY   93  59  31 SW6       30.00F
$$

AZZ503-504-507>509-272000-
SOUTHEAST ARIZONA

CITY           SKY/WX    TMP DP  RH WIND       PRES   REMARKS
TUCSON         MOSUNNY   95  58  28 W15       30.06F
DAVIS-MONTHAN  SUNNY     95  58  29 W9G16     30.04F
RYAN FIELD       N/A     91  57  31 SW8       30.06F
NOGALES        SUNNY     88  56  33 VRB3      30.15F
SIERRA VISTA   SUNNY     85  52  32 NE6       30.21F
SAFFORD        SUNNY     92  58  31 W15       30.04F
$$

AZZ020-021-025-026-031-272000-
SOUTHWEST ARIZONA

CITY           SKY/WX    TMP DP  RH WIND       PRES   REMARKS
YUMA           LGT RAIN  90  66  45 NW3       29.94F
$$

CAZ031-033-041-043-047-048-061-272000-
SOUTHERN CALIFORNIA

CITY           SKY/WX    TMP DP  RH WIND       PRES   REMARKS
DOWNTOWN L.A.  PTSUNNY   79  64  60 CALM      30.02R
L.A. AIRPORT   PTSUNNY   73  63  70 SW6       30.03S
SAN DIEGO      CLOUDY    74  66  76 NW6       30.02S
BURBANK        PTSUNNY   79  60  52 SE13      30.03R
ONTARIO        PTSUNNY   89  47  23 W8        30.01F
RIVERSIDE      PTSUNNY   89  58  34 VRB7      30.00F
PALM SPRINGS   CLOUDY    94  64  37 E8        29.99F
EL CENTRO NAS  CLOUDY    91  64  40 W3        29.89F
IMPERIAL       CLOUDY    89  66  46 S7        29.90F
BLYTHE           N/A    N/A N/A N/A MISG      29.94
$$

NVZ020-UTZ003-272000-
SOUTHERN NEVADA-UTAH

CITY           SKY/WX    TMP DP  RH WIND       PRES   REMARKS
LAS VEGAS      NOT AVBL
SALT LAKE CITY PTSUNNY   93  37  14 SE7       30.16F
$$

NMZ009-TXZ055-272000-
NEW MEXICO-WEST TEXAS

CITY           SKY/WX    TMP DP  RH WIND       PRES   REMARKS
ALBUQUERQUE    MOSUNNY   92  50  23 N12       30.23F
EL PASO        MOSUNNY   94  52  24 VRB3      30.10F
$$


........................KEY........................
SKY/WX - SKY CONDITION/WEATHER
TMP    - TEMPERATURE IN FAHRENHEIT
DP     - DEW POINT IN FAHRENHEIT
RH     - RELATIVE HUMIDITY IN PERCENT
WIND   - DIRECTION AND SPEED IN MILES PER HOUR (MPH)
VRB    - VARIABLE WIND DIRECTION
PRES   - MEAN SEA LEVEL PRESSURE IN INCHES OF MERCURY
         F - FALLING PRESSURE   R - RISING PRESSURE
         S - STEADY PRESSURE
VSB    - VISIBILITY IN MILES
HX     - HEAT INDEX IN FAHRENHEIT
WCI    - WIND CHILL INDEX IN FAHRENHEIT
TC     - TEMPERATURE IN CELSIUS WHICH IS ALSO KNOWN AS
         TEMPERATURE IN CENTIGRADE
AFB    - AIR FORCE BASE
         LUKE AFB IS LUKE AIR FORCE BASE
         DAVIS-MONTHAN IS DAVIS-MONTHAN AIR FORCE BASE
NAS    - NAVAL AIR STATION
         EL CENTRO NAS IS EL CENTRO NAVAL AIR STATION
N/A    - NOT AVAILABLE


USA.gov is the U.S. government's official web portal to all federal, state and local government web resources and services.